Погода в Герреро-Негро

Мексика     27°57′52″N   114°02′56″W
темп.,
°C
ветер,
м/с
пор.,
м/с
влажн.,
%
обл.,
%
осадки,
мм/ч
давл.,
гПа
погр.,
м
19 июня, сб
сб1900:00+17сз711903 0.0 1008286
03:00+17сз58938 0.0 1008230
06:00+16сз479610 0.0 1008160
09:00+19сз66786 0.0 1009354
12:00+22сз89600 0.0 1008428
15:00+23сз1011570 0.0 1007416
18:00+21сз911650 0.0 1006374
21:00+18сз812866 0.0 1007344
20 июня, вс
вс2000:00+17сз7108826 0.0 1009359
03:00+17сз468735 0.0 1009319
06:00+16сз348821 0.0 1010139
09:00+19ссз33735 0.0 1012482
12:00+23сз54578 0.0 1012667
15:00+26сз53481 0.0 1011730
18:00+22сз76625 0.0 1011525
21:00+18сз678184 0.0 1012346
21 июня, пн
пн2100:00+18сз348182 0.0 1013280
03:00+17сз238411 0.0 1013175
06:00+17с118374 0.0 101483
09:00+20зсз227065 0.0 1014395
12:00+25сз215151 0.0 1014747
15:00+29сз533939 0.0 1012800
18:00+23сз88585 0.0 1011383
21:00+19сз78815 0.0 1012295
22 июня, вт
вт2200:00+19сз447992 0.0 1013247
03:00+19сз3382100 0.0 1012187
06:00+19сз448248 0.0 1011202
09:00+21зсз11706 0.0 1013299
12:00+27зсз324610 0.0 1012666
15:00+26сз65485 0.0 1011544
18:00+24сз77600 0.0 1009411
21:00+19сз67810 0.0 1010235
23 июня, ср
ср2300:00+19сз45845 0.0 1012222
03:00+19сз338719 0.0 1011178
06:00+18сз238998 0.0 1011113
09:00+21сз33715 0.0 1012338
12:00+25сз43540 0.0 1012556
15:00+28сз54410 0.0 1011568
18:00+23сз88646 0.0 1011392
21:00+19сз78853 0.0 1012287